When you browse on this site, cookies collect data to enhance your experience and personalize the content and advertising you see.
Visit our Privacy Policy to learn more. By continuing to use the site, you agree to this use of cookies and data.

Tiempo cada hora Nueva Imperial

Hoy, 7 Agosto, Viernes

Tiempo Temperatura Precipitaciones Viento Presión Humedad
00:00 +4°C° 0 mm 0 mps 764 mmHg 94%
01:00 +3°C° 0 mm 0 mps 764 mmHg 94%
02:00 +3°C° 0 mm 0 mps 764 mmHg 94%
03:00 +3°C° 0 mm 0 mps 763 mmHg 93%
04:00 +3°C° 0 mm 0 mps 763 mmHg 93%
05:00 +2°C° 0 mm 0 mps 763 mmHg 94%
06:00 +2°C° 0 mm 0 mps 763 mmHg 94%
07:00 +2°C° 0 mm 0 mps 764 mmHg 93%
08:00 +4°C° 0 mm 0 mps 763 mmHg 85%
09:00 +7°C° 0 mm 0 mps 763 mmHg 77%
10:00 +9°C° 0 mm 0 mps 763 mmHg 69%
11:00 +11°C° 0 mm 1 mps 762 mmHg 68%
12:00 +12°C° 0 mm 1 mps 762 mmHg 67%
13:00 +13°C° 0 mm 1 mps 761 mmHg 67%
14:00 +12°C° 0 mm 1 mps 761 mmHg 72%
15:00 +12°C° 0 mm 1 mps 761 mmHg 77%
16:00 +11°C° 0 mm 1 mps 761 mmHg 82%
17:00 +9°C° 0 mm 0 mps 761 mmHg 86%
18:00 +7°C° 0 mm 0 mps 761 mmHg 89%
19:00 +6°C° 0 mm 0 mps 761 mmHg 93%
20:00 +6°C° 0 mm 0 mps 761 mmHg 93%
21:00 +5°C° 0 mm 0 mps 761 mmHg 93%
22:00 +5°C° 0 mm 0 mps 762 mmHg 93%
23:00 +5°C° 0 mm 0 mps 762 mmHg 93%

Mañana, 8 Agosto, Sábado

Tiempo Temperatura Precipitaciones Viento Presión Humedad
00:00 +5°C° 0 mm 0 mps 762 mmHg 93%
01:00 +5°C° 0 mm 0 mps 762 mmHg 93%
02:00 +5°C° 0 mm 0 mps 761 mmHg 94%
03:00 +5°C° 0 mm 0 mps 761 mmHg 94%
04:00 +4°C° 0 mm 0 mps 761 mmHg 94%
05:00 +4°C° 0 mm 0 mps 761 mmHg 94%
06:00 +6°C° 0 mm 1 mps 761 mmHg 93%
07:00 +6°C° 0 mm 1 mps 762 mmHg 93%
08:00 +7°C° 0 mm 1 mps 761 mmHg 88%
09:00 +9°C° 0 mm 1 mps 761 mmHg 84%
10:00 +11°C° 0 mm 1 mps 760 mmHg 79%
11:00 +12°C° 0 mm 1 mps 760 mmHg 76%
12:00 +14°C° 0 mm 1 mps 760 mmHg 73%
13:00 +15°C° 0 mm 1 mps 760 mmHg 70%
14:00 +15°C° 0 mm 1 mps 759 mmHg 74%
15:00 +14°C° 0 mm 1 mps 759 mmHg 78%
16:00 +14°C° 0 mm 1 mps 758 mmHg 82%
17:00 +13°C° 0 mm 1 mps 759 mmHg 86%
18:00 +12°C° 0 mm 1 mps 759 mmHg 89%
19:00 +11°C° 0 mm 1 mps 759 mmHg 92%
20:00 +10°C° 0 mm 1 mps 759 mmHg 93%
21:00 +10°C° 0 mm 1 mps 758 mmHg 94%
22:00 +10°C° 0 mm 1 mps 758 mmHg 95%
23:00 +10°C° 0.1 mm 1 mps 758 mmHg 94%

Pasado mañana, 9 Agosto, Domingo

Tiempo Temperatura Precipitaciones Viento Presión Humedad
00:00 +10°C° 0.1 mm 1 mps 758 mmHg 93%
01:00 +10°C° 0.1 mm 1 mps 758 mmHg 92%
02:00 +9°C° 0.7 mm 2 mps 758 mmHg 94%
03:00 +9°C° 0.7 mm 2 mps 757 mmHg 95%
04:00 +9°C° 0.7 mm 2 mps 757 mmHg 96%
05:00 +9°C° 0.5 mm 2 mps 757 mmHg 96%
06:00 +9°C° 0.5 mm 2 mps 757 mmHg 97%
07:00 +9°C° 0.5 mm 2 mps 757 mmHg 97%
08:00 +9°C° 0.9 mm 2 mps 757 mmHg 97%
09:00 +10°C° 0.9 mm 2 mps 757 mmHg 97%
10:00 +11°C° 0.9 mm 1 mps 758 mmHg 96%
11:00 +10°C° 1.4 mm 2 mps 758 mmHg 96%
12:00 +10°C° 1.4 mm 2 mps 758 mmHg 96%
13:00 +10°C° 1.4 mm 2 mps 758 mmHg 96%
14:00 +10°C° 0.1 mm 2 mps 759 mmHg 94%
15:00 +9°C° 0.1 mm 2 mps 759 mmHg 93%
16:00 +8°C° 0.1 mm 3 mps 759 mmHg 91%
17:00 +7°C° 0 mm 2 mps 760 mmHg 91%
18:00 +7°C° 0 mm 2 mps 761 mmHg 92%
19:00 +6°C° 0 mm 2 mps 761 mmHg 92%
20:00 +7°C° 0 mm 1 mps 762 mmHg 91%
21:00 +7°C° 0 mm 1 mps 762 mmHg 90%
22:00 +7°C° 0 mm 1 mps 763 mmHg 90%
23:00 +7°C° 0.1 mm 1 mps 763 mmHg 90%

10 Agosto, Lunes

Tiempo Temperatura Precipitaciones Viento Presión Humedad
00:00 +7°C° 0.1 mm 1 mps 763 mmHg 91%
01:00 +7°C° 0.1 mm 1 mps 764 mmHg 91%
02:00 +7°C° 0.3 mm 1 mps 764 mmHg 93%
03:00 +6°C° 0.3 mm 2 mps 763 mmHg 94%
04:00 +5°C° 0.3 mm 2 mps 763 mmHg 95%
05:00 +5°C° 0.2 mm 2 mps 764 mmHg 94%
06:00 +5°C° 0.2 mm 1 mps 765 mmHg 93%
07:00 +5°C° 0.2 mm 1 mps 765 mmHg 92%
08:00 +6°C° 0.1 mm 1 mps 766 mmHg 86%
09:00 +7°C° 0.1 mm 1 mps 766 mmHg 81%
10:00 +8°C° 0.1 mm 2 mps 767 mmHg 75%
11:00 +8°C° 0.1 mm 2 mps 766 mmHg 71%
12:00 +9°C° 0.1 mm 3 mps 766 mmHg 66%
13:00 +9°C° 0.1 mm 3 mps 766 mmHg 62%
14:00 +9°C° 0 mm 3 mps 766 mmHg 66%
15:00 +8°C° 0 mm 3 mps 766 mmHg 69%
16:00 +8°C° 0 mm 2 mps 766 mmHg 73%
17:00 +7°C° 0 mm 2 mps 766 mmHg 77%
18:00 +7°C° 0 mm 1 mps 766 mmHg 82%
19:00 +6°C° 0 mm 1 mps 767 mmHg 86%
20:00 +6°C° 0.1 mm 1 mps 767 mmHg 87%
21:00 +6°C° 0.1 mm 1 mps 767 mmHg 87%
22:00 +5°C° 0.1 mm 0 mps 767 mmHg 87%
23:00 +5°C° 0 mm 0 mps 766 mmHg 88%

11 Agosto, Martes

Tiempo Temperatura Precipitaciones Viento Presión Humedad
00:00 +5°C° 0 mm 0 mps 766 mmHg 89%
01:00 +5°C° 0 mm 0 mps 766 mmHg 90%
02:00 +5°C° 0 mm 0 mps 765 mmHg 91%
03:00 +5°C° 0 mm 0 mps 765 mmHg 92%
04:00 +5°C° 0 mm 0 mps 764 mmHg 93%
05:00 +5°C° 0 mm 0 mps 764 mmHg 94%
06:00 +4°C° 0 mm 0 mps 764 mmHg 95%
07:00 +4°C° 0 mm 0 mps 763 mmHg 96%
08:00 +6°C° 0 mm 1 mps 763 mmHg 90%
09:00 +8°C° 0 mm 1 mps 763 mmHg 85%
10:00 +10°C° 0 mm 1 mps 762 mmHg 79%
11:00 +9°C° 0 mm 2 mps 762 mmHg 74%
12:00 +10°C° 0 mm 2 mps 761 mmHg 68%
13:00 +11°C° 0 mm 3 mps 761 mmHg 63%
14:00 +10°C° 0 mm 2 mps 760 mmHg 66%
15:00 +9°C° 0 mm 2 mps 760 mmHg 69%
16:00 +9°C° 0 mm 2 mps 759 mmHg 73%
17:00 +7°C° 0 mm 2 mps 759 mmHg 80%
18:00 +7°C° 0 mm 1 mps 760 mmHg 87%
19:00 +5°C° 0 mm 1 mps 760 mmHg 94%
20:00 +5°C° 0 mm 1 mps 759 mmHg 95%
21:00 +4°C° 0 mm 0 mps 759 mmHg 95%
22:00 +3°C° 0 mm 0 mps 759 mmHg 96%
23:00 +3°C° 0 mm 0 mps 759 mmHg 96%

12 Agosto, Miércoles

Tiempo Temperatura Precipitaciones Viento Presión Humedad
00:00 +3°C° 0 mm 0 mps 759 mmHg 96%
01:00 +3°C° 0 mm 0 mps 758 mmHg 95%
02:00 +4°C° 0 mm 0 mps 758 mmHg 95%
03:00 +5°C° 0 mm 1 mps 758 mmHg 94%
04:00 +6°C° 0 mm 1 mps 757 mmHg 93%
05:00 +6°C° 0.1 mm 1 mps 757 mmHg 94%
06:00 +5°C° 0.1 mm 1 mps 757 mmHg 95%
07:00 +5°C° 0.1 mm 1 mps 756 mmHg 95%
08:00 +6°C° 0.7 mm 1 mps 756 mmHg 95%
09:00 +7°C° 0.7 mm 1 mps 756 mmHg 95%
10:00 +7°C° 0.7 mm 1 mps 756 mmHg 94%
11:00 +8°C° 0.3 mm 1 mps 755 mmHg 94%
12:00 +8°C° 0.3 mm 1 mps 755 mmHg 94%
13:00 +9°C° 0.3 mm 1 mps 754 mmHg 94%
14:00 +8°C° 0.8 mm 2 mps 754 mmHg 94%
15:00 +7°C° 0.8 mm 2 mps 754 mmHg 95%
16:00 +7°C° 0.8 mm 2 mps 754 mmHg 95%
17:00 +7°C° 0.1 mm 2 mps 755 mmHg 94%
18:00 +6°C° 0.1 mm 2 mps 755 mmHg 93%
19:00 +5°C° 0.1 mm 2 mps 756 mmHg 92%
20:00 +4°C° 0 mm 2 mps 757 mmHg 92%
21:00 +5°C° 0 mm 1 mps 757 mmHg 92%
22:00 +4°C° 0 mm 1 mps 758 mmHg 92%
23:00 +4°C° 0 mm 1 mps 758 mmHg 92%
Mostrar más